| time (UTC) | temp F | wind direction | speed MPH | gust MPH | rain 1hr in | rain 24hr in | rain mn in | humidity % | barometer mb |
| 20260503182034 | 50 | 297 | 21.0 | 29.0 | 0.00 | 0.00 | 0.00 | 68 | 1009.2 |
| 20260503181544 | 50 | 300 | 22.0 | 31.0 | 0.00 | 0.00 | 0.00 | 68 | 1009.2 |
| 20260503181033 | 50 | 302 | 23.0 | 31.0 | 0.00 | 0.00 | 0.00 | 69 | 1009.2 |
| 20260503180534 | 50 | 302 | 22.0 | 29.0 | 0.00 | 0.00 | 0.00 | 67 | 1009.1 |
| 20260503180057 | 50 | 290 | 19.0 | 25.0 | 0.00 | 0.00 | 0.00 | 70 | 1009.3 |
| 20260503175535 | 50 | 289 | 20.0 | 26.0 | 0.00 | 0.00 | 0.00 | 71 | 1009.2 |
| 20260503175034 | 50 | 289 | 19.0 | 26.0 | 0.00 | 0.00 | 0.00 | 72 | 1009.2 |
| 20260503174543 | 50 | 288 | 21.0 | 26.0 | 0.00 | 0.00 | 0.00 | 72 | 1009.2 |
| 20260503174031 | 50 | 288 | 20.0 | 25.0 | 0.00 | 0.00 | 0.00 | 73 | 1009.1 |
| 20260503173534 | 50 | 293 | 19.0 | 27.0 | 0.00 | 0.00 | 0.00 | 74 | 1009.1 |
| 20260503173041 | 50 | 290 | 19.0 | 28.0 | 0.00 | 0.00 | 0.00 | 70 | 1009.0 |
| 20260503172534 | 50 | 298 | 22.0 | 28.0 | 0.00 | 0.00 | 0.00 | 68 | 1009.1 |
| 20260503172034 | 50 | 302 | 22.0 | 29.0 | 0.00 | 0.00 | 0.00 | 64 | 1009.1 |
| 20260503171545 | 50 | 310 | 21.0 | 31.0 | 0.00 | 0.00 | 0.00 | 66 | 1009.2 |
| 20260503171034 | 50 | 316 | 23.0 | 33.0 | 0.00 | 0.00 | 0.00 | 64 | 1009.0 |
| 20260503170536 | 50 | 312 | 24.0 | 33.0 | 0.00 | 0.00 | 0.00 | 66 | 1009.0 |
| 20260503150530 | 49 | 315 | 17.0 | 24.0 | 0.00 | 0.00 | 0.00 | 72 | 1009.0 |
| 20260503131029 | 46 | 304 | 17.0 | 22.0 | 0.00 | 0.00 | 0.00 | 73 | 1009.0 |
| 20260503130530 | 46 | 304 | 15.0 | 21.0 | 0.00 | 0.00 | 0.00 | 74 | 1009.2 |
| 20260503110532 | 44 | 321 | 18.0 | 22.0 | 0.00 | 0.00 | 0.00 | 73 | 1009.2 |
| 20260503081542 | 46 | 348 | 20.0 | 26.0 | 0.00 | 0.00 | 0.00 | 68 | 1008.6 |
| 20260503081034 | 46 | 346 | 19.0 | 25.0 | 0.00 | 0.00 | 0.00 | 68 | 1008.7 |
| 20260503080537 | 47 | 346 | 16.0 | 23.0 | 0.00 | 0.00 | 0.00 | 70 | 1008.6 |
| 20260503072533 | 47 | 352 | 11.0 | 18.0 | 0.00 | 0.00 | 0.00 | 69 | 1008.6 |
| 20260503072032 | 47 | 355 | 12.0 | 18.0 | 0.00 | 0.00 | 0.00 | 68 | 1008.3 |
| 20260503071601 | 47 | 352 | 13.0 | 19.0 | 0.00 | 0.00 | 0.00 | 68 | 1008.5 |
| 20260503071032 | 47 | 352 | 12.0 | 19.0 | 0.00 | 0.00 | 0.00 | 70 | 1008.8 |
| 20260503070534 | 47 | 355 | 13.0 | 18.0 | 0.00 | 0.00 | 0.00 | 70 | 1008.9 |
| 20260503055034 | 49 | 300 | 10.0 | 15.0 | 0.00 | 0.00 | 0.00 | 68 | 1009.6 |
| 20260503054556 | 49 | 300 | 11.0 | 16.0 | 0.00 | 0.00 | 0.00 | 68 | 1009.6 |
| 20260503054031 | 49 | 300 | 10.0 | 16.0 | 0.00 | 0.00 | 0.00 | 69 | 1009.7 |
| 20260503053532 | 49 | 300 | 11.0 | 16.0 | 0.00 | 0.00 | 0.00 | 68 | 1009.9 |
| 20260503053043 | 49 | 300 | 10.0 | 13.0 | 0.00 | 0.00 | 0.00 | 70 | 1009.8 |
| 20260503052534 | 49 | 300 | 9.0 | 12.0 | 0.00 | 0.00 | 0.00 | 70 | 1009.9 |
| 20260503052032 | 49 | 300 | 8.0 | 13.0 | 0.00 | 0.00 | 0.00 | 70 | 1010.3 |
| 20260503051539 | 49 | 300 | 10.0 | 13.0 | 0.00 | 0.00 | 0.00 | 69 | 1010.2 |
| 20260503051032 | 49 | 300 | 10.0 | 14.0 | 0.00 | 0.00 | 0.00 | 70 | 1010.0 |
| 20260503050532 | 49 | 300 | 11.0 | 14.0 | 0.00 | 0.00 | 0.00 | 70 | 1010.0 |
| 20260503050046 | 49 | 300 | 11.0 | 14.0 | 0.00 | 0.00 | 0.00 | 70 | 1010.0 |
| 20260503045534 | 49 | 300 | 10.0 | 15.0 | 0.00 | 0.00 | 0.00 | 70 | 1009.8 |
| 20260503045036 | 49 | 300 | 10.0 | 15.0 | 0.00 | 0.00 | 0.00 | 70 | 1009.9 |
| 20260503044543 | 49 | 300 | 11.0 | 16.0 | 0.00 | 0.00 | 0.00 | 70 | 1010.1 |
| 20260503044031 | 49 | 300 | 12.0 | 16.0 | 0.00 | 0.00 | 0.00 | 70 | 1010.4 |
| 20260503043533 | 49 | 298 | 13.0 | 16.0 | 0.00 | 0.00 | 0.00 | 71 | 1010.3 |
| 20260503043050 | 49 | 291 | 12.0 | 16.0 | 0.00 | 0.00 | 0.00 | 73 | 1010.4 |
| 20260503042534 | 49 | 282 | 12.0 | 16.0 | 0.00 | 0.00 | 0.00 | 74 | 1010.4 |
| 20260503042031 | 49 | 262 | 11.0 | 15.0 | 0.00 | 0.00 | 0.00 | 75 | 1010.4 |
| 20260503041543 | 49 | 259 | 11.0 | 14.0 | 0.00 | 0.00 | 0.00 | 78 | 1010.4 |
| 20260503041036 | 49 | 256 | 11.0 | 14.0 | 0.00 | 0.00 | 0.00 | 81 | 1010.4 |
| 20260503040531 | 48 | 248 | 11.0 | 14.0 | 0.00 | 0.00 | 0.00 | 84 | 1010.2 |
| 20260503040104 | 47 | 239 | 10.0 | 13.0 | 0.00 | 0.00 | 0.00 | 87 | 1010.4 |
| 20260503035531 | 47 | 232 | 5.0 | 8.0 | 0.00 | 0.00 | 0.00 | 88 | 1010.6 |
| 20260503035036 | 48 | 232 | 3.0 | 6.0 | 0.00 | 0.00 | 0.00 | 88 | 1010.4 |
| 20260503034538 | 48 | 232 | 3.0 | 6.0 | 0.00 | 0.00 | 0.00 | 88 | 1010.6 |
| 20260503034030 | 48 | 232 | 4.0 | 6.0 | 0.00 | 0.00 | 0.00 | 88 | 1010.4 |
| 20260503033532 | 48 | 232 | 3.0 | 6.0 | 0.00 | 0.00 | 0.00 | 88 | 1010.6 |
| 20260503033039 | 48 | 232 | 4.0 | 6.0 | 0.00 | 0.00 | 0.00 | 88 | 1010.6 |
| 20260503032532 | 48 | 232 | 4.0 | 6.0 | 0.00 | 0.00 | 0.00 | 88 | 1010.3 |
| 20260503032031 | 48 | 232 | 3.0 | 6.0 | 0.00 | 0.00 | 0.00 | 87 | 1010.3 |
| 20260503031555 | 48 | 232 | 3.0 | 6.0 | 0.00 | 0.00 | 0.00 | 87 | 1010.6 |
| 20260503031030 | 48 | 232 | 3.0 | 5.0 | 0.00 | 0.00 | 0.00 | 87 | 1010.6 |
| 20260503030533 | 48 | 232 | 2.0 | 5.0 | 0.00 | 0.00 | 0.00 | 87 | 1010.7 |
| 20260503030048 | 48 | 232 | 3.0 | 5.0 | 0.00 | 0.00 | 0.00 | 87 | 1010.6 |
| 20260503025534 | 48 | 232 | 3.0 | 4.0 | 0.00 | 0.00 | 0.00 | 87 | 1010.7 |
| 20260503025033 | 48 | 0 | 0.0 | 0.0 | 0.00 | 0.00 | 0.00 | 87 | 1010.6 |
| 20260503024539 | 48 | 0 | 0.0 | 0.0 | 0.00 | 0.00 | 0.00 | 87 | 1010.6 |
| 20260503024031 | 48 | 0 | 0.0 | 3.0 | 0.00 | 0.00 | 0.00 | 86 | 1010.6 |
| 20260503023531 | 48 | 0 | 0.0 | 3.0 | 0.00 | 0.00 | 0.00 | 86 | 1010.6 |
| 20260503023039 | 49 | 232 | 1.0 | 3.0 | 0.00 | 0.00 | 0.00 | 86 | 1010.7 |
| 20260503022530 | 49 | 0 | 0.0 | 4.0 | 0.00 | 0.00 | 0.00 | 86 | 1010.7 |
| 20260503022030 | 49 | 232 | 1.0 | 4.0 | 0.00 | 0.00 | 0.00 | 86 | 1010.7 |
| 20260503021544 | 49 | 232 | 1.0 | 4.0 | 0.00 | 0.00 | 0.00 | 86 | 1010.7 |
| 20260503021034 | 49 | 0 | 0.0 | 2.0 | 0.00 | 0.00 | 0.00 | 86 | 1010.7 |
| 20260503020533 | 49 | 0 | 0.0 | 4.0 | 0.00 | 0.00 | 0.00 | 86 | 1010.6 |
| 20260503020038 | 49 | 232 | 0.0 | 4.0 | 0.00 | 0.00 | 0.00 | 86 | 1010.7 |
| 20260503015533 | 49 | 232 | 1.0 | 3.0 | 0.00 | 0.00 | 0.00 | 85 | 1010.7 |
| 20260503015034 | 49 | 0 | 0.0 | 0.0 | 0.00 | 0.00 | 0.00 | 85 | 1010.7 |
| 20260503014603 | 49 | 0 | 0.0 | 3.0 | 0.00 | 0.00 | 0.00 | 85 | 1010.9 |
| 20260503014031 | 49 | 0 | 0.0 | 5.0 | 0.00 | 0.00 | 0.00 | 85 | 1010.8 |
| 20260503013531 | 50 | 232 | 2.0 | 6.0 | 0.00 | 0.00 | 0.00 | 85 | 1010.8 |
| 20260503013040 | 50 | 232 | 3.0 | 6.0 | 0.00 | 0.00 | 0.00 | 85 | 1010.8 |
| 20260503012537 | 50 | 232 | 4.0 | 7.0 | 0.00 | 0.00 | 0.00 | 85 | 1010.9 |
| 20260503012031 | 50 | 232 | 5.0 | 7.0 | 0.00 | 0.00 | 0.00 | 84 | 1010.8 |
| 20260503011539 | 51 | 232 | 2.0 | 5.0 | 0.00 | 0.00 | 0.00 | 84 | 1010.8 |
| 20260503011034 | 51 | 0 | 0.0 | 2.0 | 0.00 | 0.00 | 0.00 | 84 | 1010.8 |
| 20260503010530 | 51 | 0 | 0.0 | 3.0 | 0.00 | 0.00 | 0.00 | 84 | 1010.6 |
| 20260503010044 | 51 | 232 | 1.0 | 3.0 | 0.00 | 0.00 | 0.00 | 84 | 1010.6 |
| 20260503005531 | 51 | 0 | 0.0 | 3.0 | 0.00 | 0.00 | 0.00 | 83 | 1010.5 |
| 20260503005031 | 51 | 232 | 0.0 | 0.0 | 0.00 | 0.00 | 0.00 | 83 | 1010.6 |
| 20260503004544 | 51 | 0 | 0.0 | 0.0 | 0.00 | 0.00 | 0.00 | 83 | 1010.5 |
| 20260503004031 | 51 | 0 | 0.0 | 2.0 | 0.00 | 0.00 | 0.00 | 83 | 1010.5 |
| 20260503003534 | 51 | 0 | 0.0 | 2.0 | 0.00 | 0.00 | 0.00 | 82 | 1010.4 |
| 20260503003056 | 51 | 0 | 0.0 | 3.0 | 0.00 | 0.00 | 0.00 | 82 | 1010.4 |
| 20260503002532 | 52 | 0 | 0.0 | 3.0 | 0.00 | 0.00 | 0.00 | 82 | 1010.4 |
| 20260503002033 | 52 | 232 | 0.0 | 2.0 | 0.00 | 0.00 | 0.00 | 81 | 1010.4 |
| 20260503001555 | 52 | 0 | 0.0 | 2.0 | 0.00 | 0.00 | 0.00 | 81 | 1010.2 |
| 20260503001034 | 52 | 232 | 0.0 | 2.0 | 0.00 | 0.00 | 0.00 | 81 | 1010.3 |
| 20260503000532 | 52 | 0 | 0.0 | 3.0 | 0.00 | 0.00 | 0.00 | 80 | 1010.3 |
| 20260503000044 | 52 | 0 | 0.0 | 3.0 | 0.00 | 0.00 | 0.00 | 80 | 1010.2 |
| 20260502235532 | 53 | 232 | 0.0 | 3.0 | 0.00 | 0.00 | 0.00 | 80 | 1010.1 |
| 20260502235032 | 53 | 232 | 0.0 | 3.0 | 0.00 | 0.00 | 0.00 | 79 | 1010.2 |
| 20260502234545 | 53 | 0 | 0.0 | 4.0 | 0.00 | 0.00 | 0.00 | 79 | 1010.2 |
| 20260502234036 | 53 | 232 | 0.0 | 4.0 | 0.00 | 0.00 | 0.00 | 79 | 1010.3 |
| 20260502233532 | 53 | 0 | 0.0 | 3.0 | 0.00 | 0.00 | 0.00 | 79 | 1010.3 |
| 20260502233046 | 53 | 232 | 1.0 | 3.0 | 0.00 | 0.00 | 0.00 | 79 | 1010.2 |
| 20260502232536 | 53 | 0 | 0.0 | 4.0 | 0.00 | 0.00 | 0.00 | 79 | 1010.2 |
| 20260502232034 | 53 | 0 | 0.0 | 4.0 | 0.00 | 0.00 | 0.00 | 79 | 1010.1 |
| 20260502231541 | 53 | 232 | 1.0 | 4.0 | 0.00 | 0.00 | 0.00 | 79 | 1010.2 |
| 20260502231032 | 53 | 232 | 1.0 | 5.0 | 0.00 | 0.00 | 0.00 | 79 | 1010.2 |
| 20260502230536 | 53 | 232 | 1.0 | 5.0 | 0.00 | 0.00 | 0.00 | 79 | 1010.2 |
| 20260502230051 | 53 | 232 | 1.0 | 5.0 | 0.00 | 0.00 | 0.00 | 79 | 1010.3 |
| 20260502225537 | 54 | 232 | 2.0 | 5.0 | 0.00 | 0.00 | 0.00 | 79 | 1010.3 |
| 20260502225033 | 54 | 232 | 1.0 | 5.0 | 0.00 | 0.00 | 0.00 | 79 | 1010.1 |
| 20260502224549 | 54 | 232 | 0.0 | 4.0 | 0.00 | 0.00 | 0.00 | 79 | 1010.2 |
| 20260502224034 | 54 | 232 | 1.0 | 5.0 | 0.00 | 0.00 | 0.00 | 79 | 1010.2 |
| 20260502223533 | 54 | 232 | 2.0 | 5.0 | 0.00 | 0.00 | 0.00 | 79 | 1010.3 |
| 20260502223044 | 54 | 232 | 1.0 | 5.0 | 0.00 | 0.00 | 0.00 | 78 | 1010.3 |
| 20260502222535 | 54 | 232 | 1.0 | 5.0 | 0.00 | 0.00 | 0.00 | 79 | 1010.3 |
| 20260502222034 | 54 | 0 | 0.0 | 4.0 | 0.00 | 0.00 | 0.00 | 79 | 1010.2 |
| 20260502221542 | 54 | 232 | 1.0 | 4.0 | 0.00 | 0.00 | 0.00 | 79 | 1010.2 |
| 20260502221034 | 54 | 232 | 1.0 | 5.0 | 0.00 | 0.00 | 0.00 | 79 | 1010.2 |
| 20260502220536 | 54 | 232 | 2.0 | 5.0 | 0.00 | 0.00 | 0.00 | 79 | 1010.2 |
| 20260502220041 | 54 | 232 | 2.0 | 5.0 | 0.00 | 0.00 | 0.00 | 79 | 1010.2 |
| 20260502215534 | 54 | 232 | 2.0 | 5.0 | 0.00 | 0.00 | 0.00 | 78 | 1010.1 |
| 20260502215033 | 54 | 232 | 1.0 | 4.0 | 0.00 | 0.00 | 0.00 | 78 | 1010.2 |
| 20260502214544 | 54 | 232 | 1.0 | 4.0 | 0.00 | 0.00 | 0.00 | 78 | 1010.1 |
| 20260502214032 | 54 | 232 | 0.0 | 1.0 | 0.00 | 0.00 | 0.00 | 78 | 1010.2 |
| 20260502213533 | 54 | 0 | 0.0 | 0.0 | 0.00 | 0.00 | 0.00 | 78 | 1010.4 |
| 20260502213044 | 54 | 0 | 0.0 | 2.0 | 0.00 | 0.00 | 0.00 | 78 | 1010.2 |
| 20260502212533 | 53 | 0 | 0.0 | 3.0 | 0.00 | 0.00 | 0.00 | 78 | 1010.3 |
| 20260502212033 | 53 | 232 | 1.0 | 5.0 | 0.00 | 0.00 | 0.00 | 78 | 1010.3 |
| 20260502211539 | 53 | 232 | 2.0 | 5.0 | 0.00 | 0.00 | 0.00 | 78 | 1010.3 |
| 20260502211037 | 54 | 232 | 2.0 | 5.0 | 0.00 | 0.00 | 0.00 | 80 | 1010.4 |
| 20260502210533 | 54 | 0 | 1.0 | 5.0 | 0.00 | 0.00 | 0.00 | 81 | 1010.3 |
| 20260502210044 | 54 | 0 | 0.0 | 1.0 | 0.00 | 0.00 | 0.00 | 80 | 1010.2 |
| 20260502205530 | 54 | 0 | 0.0 | 3.0 | 0.00 | 0.00 | 0.00 | 80 | 1010.3 |
| 20260502205031 | 54 | 0 | 1.0 | 5.0 | 0.00 | 0.00 | 0.00 | 81 | 1010.4 |
| 20260502204550 | 54 | 232 | 0.0 | 5.0 | 0.00 | 0.00 | 0.00 | 81 | 1010.4 |
| 20260502204035 | 54 | 232 | 0.0 | 4.0 | 0.00 | 0.00 | 0.00 | 81 | 1010.5 |
| 20260502203533 | 54 | 0 | 0.0 | 6.0 | 0.00 | 0.00 | 0.00 | 82 | 1010.3 |
| 20260502203038 | 53 | 232 | 1.0 | 6.0 | 0.00 | 0.00 | 0.00 | 81 | 1010.3 |
| 20260502202530 | 53 | 232 | 3.0 | 6.0 | 0.00 | 0.00 | 0.00 | 81 | 1010.3 |
| 20260502202034 | 53 | 232 | 3.0 | 6.0 | 0.00 | 0.00 | 0.00 | 82 | 1010.4 |
| 20260502201550 | 53 | 232 | 3.0 | 7.0 | 0.00 | 0.00 | 0.00 | 81 | 1010.5 |
| 20260502201034 | 53 | 232 | 1.0 | 7.0 | 0.00 | 0.00 | 0.00 | 82 | 1010.6 |
| 20260502200535 | 54 | 232 | 3.0 | 8.0 | 0.00 | 0.00 | 0.00 | 82 | 1010.5 |
| 20260502200039 | 54 | 232 | 3.0 | 8.0 | 0.00 | 0.00 | 0.00 | 81 | 1010.6 |
| 20260502195533 | 54 | 232 | 3.0 | 10.0 | 0.00 | 0.00 | 0.00 | 81 | 1010.6 |
| 20260502195032 | 54 | 232 | 4.0 | 10.0 | 0.00 | 0.00 | 0.00 | 81 | 1010.6 |
| 20260502194546 | 55 | 232 | 2.0 | 7.0 | 0.00 | 0.00 | 0.00 | 83 | 1010.7 |
| 20260502194037 | 54 | 232 | 1.0 | 7.0 | 0.00 | 0.00 | 0.00 | 84 | 1010.6 |
| 20260502193531 | 53 | 0 | 3.0 | 7.0 | 0.00 | 0.00 | 0.00 | 83 | 1010.6 |
| 20260502193036 | 53 | 232 | 3.0 | 7.0 | 0.00 | 0.00 | 0.00 | 83 | 1010.7 |
| 20260502192530 | 53 | 232 | 1.0 | 6.0 | 0.00 | 0.00 | 0.00 | 83 | 1010.7 |
| 20260502192030 | 53 | 0 | 3.0 | 6.0 | 0.00 | 0.00 | 0.00 | 82 | 1010.8 |
| 20260502191555 | 53 | 232 | 2.0 | 6.0 | 0.00 | 0.00 | 0.00 | 83 | 1010.9 |
| 20260502191035 | 53 | 232 | 1.0 | 6.0 | 0.00 | 0.00 | 0.00 | 83 | 1011.0 |
| 20260502190530 | 53 | 232 | 3.0 | 6.0 | 0.00 | 0.00 | 0.00 | 82 | 1010.9 |
| 20260502190104 | 53 | 232 | 1.0 | 6.0 | 0.00 | 0.00 | 0.00 | 82 | 1011.0 |
| 20260502185534 | 53 | 232 | 3.0 | 6.0 | 0.00 | 0.00 | 0.00 | 82 | 1011.1 |
| 20260502185035 | 53 | 232 | 2.0 | 6.0 | 0.00 | 0.00 | 0.00 | 82 | 1011.1 |
| 20260502184558 | 53 | 232 | 1.0 | 7.0 | 0.00 | 0.00 | 0.00 | 82 | 1011.2 |
| 20260502184034 | 53 | 232 | 3.0 | 7.0 | 0.00 | 0.00 | 0.00 | 82 | 1011.3 |
| 20260502183537 | 53 | 232 | 0.0 | 6.0 | 0.00 | 0.00 | 0.00 | 83 | 1011.2 |
| 20260502183104 | 53 | 232 | 1.0 | 6.0 | 0.00 | 0.00 | 0.00 | 83 | 1011.3 |
| 20260502182532 | 53 | 232 | 3.0 | 6.0 | 0.00 | 0.00 | 0.00 | 83 | 1011.2 |